Weather History for KGUP - April, 2013

Change the Weather History Date:

Monday, April 15, 2013

  Actual Average Record
Temperature  
Mean Temperature 55 °F -  
Max Temperature 68 °F 61 °F 78 °F (1989)
Min Temperature 44 °F 25 °F 9 °F (1993)
Degree Days  
Heating Degree Days 10    
Growing Degree Days 5 (Base 50)    
Moisture  
Dew Point 23 °F    
Average Humidity 30    
Maximum Humidity 43    
Minimum Humidity 16    
Precipitation  
Precipitation 0.00 in - - ()
Sea Level Pressure  
Sea Level Pressure 29.47 in    
Wind  
Wind Speed 20 mph (SW)    
Max Wind Speed 37 mph    
Max Gust Speed 46 mph    
Visibility 10 miles    
Events      
Averages and records for this station are not official NWS values.
T = Trace of Precipitation, MM = Missing Value Source: NWS Daily Summary

Daily Weather History Graph

Daily Weather History Graph

Search for Another Location

Airport or City:

Trip Planner

Search our weather history database for the weather conditions in past years. The results will help you decide how hot, cold, wet, or windy it might be!

Date:

Astronomy

Apr. 15, 2013 Rise Set
Actual Time 6:42 AM MDT 7:48 PM MDT
Civil Twilight 6:15 AM MDT 8:14 PM MDT
Nautical Twilight 5:44 AM MDT 8:46 PM MDT
Astronomical Twilight 5:12 AM MDT 9:18 PM MDT
Moon 10:16 AM MDT (4/15) No Moon Set
Length of Visible Light 13h 58m
Length of Day
13h 06m
Waxing Crescent, 25% of the Moon is Illuminated
Apr 15
Waxing Crescent
Apr 18
First Quarter
Apr 25
Full
May 2
Last Quarter
May 9
New

Hourly Weather History & Observations

Time (MDT) Temp. Windchill Dew Point Humidity Pressure Visibility Wind Dir Wind Speed Gust Speed Precip Events Conditions
12:53 AM 46.9 °F - 25.0 °F 42% 29.46 in 10.0 mi SSW 11.5 mph - N/A   Clear
1:53 AM 46.0 °F 39.6 °F 24.1 °F 42% 29.44 in 10.0 mi SSW 15.0 mph - N/A   Clear
2:53 AM 46.9 °F - 21.0 °F 36% 29.44 in 10.0 mi SW 17.3 mph 24.2 mph N/A   Clear
3:53 AM 46.0 °F 40.6 °F 18.0 °F 33% 29.45 in 10.0 mi SW 11.5 mph - N/A   Clear
4:53 AM 46.0 °F 39.6 °F 21.0 °F 37% 29.44 in 10.0 mi SW 15.0 mph - N/A   Clear
5:53 AM 44.1 °F 37.4 °F 23.0 °F 43% 29.48 in 10.0 mi SSW 13.8 mph - N/A   Clear
6:53 AM 44.1 °F 36.5 °F 23.0 °F 43% 29.52 in 10.0 mi SW 17.3 mph 31.1 mph N/A   Clear
7:53 AM 46.9 °F - 25.0 °F 42% 29.52 in 10.0 mi SW 20.7 mph 26.5 mph N/A   Clear
8:53 AM 50.0 °F - 25.0 °F 38% 29.51 in 10.0 mi SW 26.5 mph 36.8 mph N/A   Clear
9:53 AM 54.0 °F - 26.1 °F 34% 29.50 in 10.0 mi SW 25.3 mph 38.0 mph N/A   Clear
10:53 AM 57.9 °F - 26.1 °F 30% 29.48 in 10.0 mi SW 31.1 mph 42.6 mph N/A   Clear
11:53 AM 60.1 °F - 26.1 °F 27% 29.49 in 10.0 mi SW 28.8 mph 38.0 mph N/A   Clear
12:53 PM 63.0 °F - 24.1 °F 23% 29.47 in 10.0 mi SW 29.9 mph 46.0 mph N/A   Clear
1:53 PM 64.9 °F - 23.0 °F 20% 29.44 in 10.0 mi SW 36.8 mph 42.6 mph N/A   Clear
2:53 PM 66.9 °F - 23.0 °F 19% 29.41 in 10.0 mi SW 31.1 mph 42.6 mph N/A   Clear
3:53 PM 66.9 °F - 23.0 °F 19% 29.39 in 10.0 mi SW 33.4 mph 46.0 mph N/A   Clear
4:53 PM 66.9 °F - 21.0 °F 17% 29.40 in 10.0 mi SW 34.5 mph 46.0 mph N/A   Clear
5:53 PM 64.9 °F - 17.1 °F 16% 29.44 in 10.0 mi SW 33.4 mph 46.0 mph N/A   Clear
6:53 PM 62.1 °F - 17.1 °F 18% 29.47 in 10.0 mi SW 31.1 mph 44.9 mph N/A   Clear
7:53 PM 59.0 °F - 19.0 °F 21% 29.49 in 10.0 mi SW 25.3 mph 39.1 mph N/A   Clear
8:53 PM 55.9 °F - 21.9 °F 27% 29.50 in 10.0 mi SW 18.4 mph 27.6 mph N/A   Clear
9:53 PM 55.0 °F - 24.1 °F 30% 29.49 in 10.0 mi SW 26.5 mph 34.5 mph N/A   Clear
10:53 PM 51.1 °F - 25.0 °F 36% 29.50 in 10.0 mi SSW 15.0 mph - N/A   Clear
11:53 PM 52.0 °F - 23.0 °F 32% 29.49 in 10.0 mi SSW 18.4 mph 26.5 mph N/A   Clear